Time,TemperatureF,DewpointF,PressureIn,WindDirection,WindDirectionDegrees,WindSpeedMPH,WindSpeedGustMPH,Humidity,HourlyPrecipIn,Conditions,Clouds,dailyrainin,SolarRadiationWatts/m^2,SoftwareType,DateUTC
2013-01-02 00:22:00,9.0,-1.0,-100.00,East,89,4.0,6.0,62,0.00,,,-99.99,1.000000,,2013-01-02 07:22:00,
2013-01-02 00:32:00,9.0,-1.0,-100.00,East,89,4.0,6.0,62,0.00,,,-99.99,1.000000,,2013-01-02 07:32:00,
2013-01-02 00:42:00,9.0,-1.0,-100.00,East,89,4.0,6.0,62,0.00,,,-99.99,1.000000,,2013-01-02 07:42:00,
2013-01-02 00:52:00,9.0,-1.0,-100.00,East,89,4.0,6.0,62,0.00,,,-99.99,1.000000,,2013-01-02 07:52:00,
2013-01-02 01:22:00,8.0,-2.0,-100.00,ENE,65,4.0,8.0,63,0.00,,,0.06,1.000000,,2013-01-02 08:22:00,
2013-01-02 01:32:00,8.0,-2.0,-100.00,ENE,65,4.0,8.0,63,0.00,,,0.06,1.000000,,2013-01-02 08:32:00,
2013-01-02 01:42:00,8.0,-2.0,-100.00,ENE,65,4.0,8.0,63,0.00,,,0.06,1.000000,,2013-01-02 08:42:00,
2013-01-02 01:52:00,8.0,-2.0,-100.00,ENE,65,4.0,8.0,63,0.00,,,0.06,1.000000,,2013-01-02 08:52:00,
2013-01-02 02:22:00,9.0,-1.0,-100.00,East,91,2.0,7.0,62,0.00,,,0.06,1.000000,,2013-01-02 09:22:00,
2013-01-02 02:32:00,9.0,-1.0,-100.00,East,91,2.0,7.0,62,0.00,,,0.06,1.000000,,2013-01-02 09:32:00,
2013-01-02 02:43:00,9.0,-1.0,-100.00,East,91,2.0,7.0,62,0.00,,,0.06,1.000000,,2013-01-02 09:43:00,
2013-01-02 02:52:00,9.0,-1.0,-100.00,East,91,2.0,7.0,62,0.00,,,0.06,1.000000,,2013-01-02 09:52:00,
2013-01-02 03:12:00,5.0,-2.0,-100.00,NNE,18,2.0,5.0,73,0.00,,,0.06,1.000000,,2013-01-02 10:12:00,
2013-01-02 03:22:00,5.0,-2.0,-100.00,NNE,18,2.0,5.0,73,0.00,,,0.06,1.000000,,2013-01-02 10:22:00,
2013-01-02 03:32:00,5.0,-2.0,-100.00,NNE,18,2.0,5.0,73,0.00,,,0.06,1.000000,,2013-01-02 10:32:00,
2013-01-02 03:42:00,5.0,-2.0,-100.00,NNE,18,2.0,5.0,73,0.00,,,0.06,1.000000,,2013-01-02 10:42:00,
2013-01-02 03:52:00,5.0,-2.0,-100.00,NNE,18,2.0,5.0,73,0.00,,,0.06,1.000000,,2013-01-02 10:52:00,
2013-01-02 04:22:00,3.0,-3.0,-100.00,NE,39,1.0,4.0,76,0.00,,,0.06,1.000000,,2013-01-02 11:22:00,
2013-01-02 04:32:00,3.0,-3.0,-100.00,NE,39,1.0,4.0,76,0.00,,,0.06,1.000000,,2013-01-02 11:32:00,
2013-01-02 04:42:00,3.0,-3.0,-100.00,NE,39,1.0,4.0,76,0.00,,,0.06,1.000000,,2013-01-02 11:42:00,
2013-01-02 04:52:00,3.0,-3.0,-100.00,NE,39,1.0,4.0,76,0.00,,,0.06,1.000000,,2013-01-02 11:52:00,
2013-01-02 05:22:00,2.0,-4.0,-100.00,East,79,2.0,3.0,77,0.00,,,0.06,1.000000,,2013-01-02 12:22:00,
2013-01-02 05:32:00,2.0,-4.0,-100.00,East,79,2.0,3.0,77,0.00,,,0.06,1.000000,,2013-01-02 12:32:00,
2013-01-02 05:42:00,2.0,-4.0,-100.00,East,79,2.0,3.0,77,0.00,,,0.06,1.000000,,2013-01-02 12:42:00,
2013-01-02 05:52:00,2.0,-4.0,-100.00,East,79,2.0,3.0,77,0.00,,,0.06,1.000000,,2013-01-02 12:52:00,
2013-01-02 06:22:00,0.0,-6.0,-100.00,East,96,0.0,3.0,76,0.00,,,0.06,1.000000,,2013-01-02 13:22:00,
2013-01-02 06:32:00,0.0,-6.0,-100.00,East,96,0.0,3.0,76,0.00,,,0.06,1.000000,,2013-01-02 13:32:00,
2013-01-02 06:42:00,0.0,-6.0,-100.00,East,96,0.0,3.0,76,0.00,,,0.06,1.000000,,2013-01-02 13:42:00,
2013-01-02 06:52:00,0.0,-6.0,-100.00,East,96,0.0,3.0,76,0.00,,,0.06,1.000000,,2013-01-02 13:52:00,
2013-01-02 07:22:00,0.0,-5.0,-100.00,NE,53,1.0,3.0,77,0.00,,,-99.99,1.000000,,2013-01-02 14:22:00,
2013-01-02 07:32:00,0.0,-5.0,-100.00,NE,53,1.0,3.0,77,0.00,,,-99.99,1.000000,,2013-01-02 14:32:00,
2013-01-02 07:42:00,0.0,-5.0,-100.00,NE,53,1.0,3.0,77,0.00,,,-99.99,1.000000,,2013-01-02 14:42:00,
2013-01-02 07:53:00,0.0,-5.0,-100.00,NE,53,1.0,3.0,77,0.00,,,-99.99,1.000000,,2013-01-02 14:53:00,
2013-01-02 08:22:00,1.0,-5.0,-100.00,ENE,61,3.0,5.0,75,0.00,,,0.06,2.000000,,2013-01-02 15:22:00,
2013-01-02 08:33:00,1.0,-5.0,-100.00,ENE,61,3.0,5.0,75,0.00,,,0.06,2.000000,,2013-01-02 15:33:00,
2013-01-02 08:42:00,1.0,-5.0,-100.00,ENE,61,3.0,5.0,75,0.00,,,0.06,2.000000,,2013-01-02 15:42:00,
2013-01-02 08:52:00,1.0,-5.0,-100.00,ENE,61,3.0,5.0,75,0.00,,,0.06,2.000000,,2013-01-02 15:52:00,
2013-01-02 09:22:00,10.0,1.0,-100.00,ENE,67,2.0,5.0,66,0.00,,,0.06,14.000000,,2013-01-02 16:22:00,
2013-01-02 09:33:00,10.0,1.0,-100.00,ENE,67,2.0,5.0,66,0.00,,,0.06,14.000000,,2013-01-02 16:33:00,
2013-01-02 09:42:00,10.0,1.0,-100.00,ENE,67,2.0,5.0,66,0.00,,,0.06,14.000000,,2013-01-02 16:42:00,
2013-01-02 09:53:00,10.0,1.0,-100.00,ENE,67,2.0,5.0,66,0.00,,,0.06,14.000000,,2013-01-02 16:53:00,
2013-01-02 10:22:00,23.0,3.0,-100.00,ENE,61,3.0,5.0,42,0.00,,,0.06,76.000000,,2013-01-02 17:22:00,
2013-01-02 10:43:00,23.0,3.0,-100.00,ENE,61,3.0,5.0,42,0.00,,,0.06,76.000000,,2013-01-02 17:43:00,
2013-01-02 10:53:00,23.0,3.0,-100.00,ENE,61,3.0,5.0,42,0.00,,,0.06,76.000000,,2013-01-02 17:53:00,
2013-01-02 11:22:00,23.0,4.0,-100.00,NW,311,1.0,7.0,44,0.00,,,0.06,30.000000,,2013-01-02 18:22:00,
2013-01-02 11:33:00,23.0,4.0,-100.00,NW,311,1.0,7.0,44,0.00,,,0.06,30.000000,,2013-01-02 18:33:00,
2013-01-02 11:42:00,23.0,4.0,-100.00,NW,311,1.0,7.0,44,0.00,,,0.06,30.000000,,2013-01-02 18:42:00,
2013-01-02 11:52:00,23.0,4.0,-100.00,NW,311,1.0,7.0,44,0.00,,,0.06,30.000000,,2013-01-02 18:52:00,
2013-01-02 12:22:00,28.0,6.0,-100.00,West,263,4.0,7.0,39,0.03,,,-99.99,120.000000,,2013-01-02 19:22:00,
2013-01-02 12:32:00,28.0,6.0,-100.00,West,263,4.0,7.0,39,0.03,,,-99.99,120.000000,,2013-01-02 19:32:00,
2013-01-02 12:42:00,28.0,6.0,-100.00,West,263,4.0,7.0,39,0.03,,,-99.99,120.000000,,2013-01-02 19:42:00,
2013-01-02 12:52:00,28.0,6.0,-100.00,West,263,4.0,7.0,39,0.03,,,-99.99,120.000000,,2013-01-02 19:52:00,
2013-01-02 13:22:00,27.0,7.0,-100.00,WNW,288,4.0,7.0,42,0.04,,,0.10,156.000000,,2013-01-02 20:22:00,
2013-01-02 13:33:00,27.0,7.0,-100.00,WNW,288,4.0,7.0,42,0.04,,,0.10,156.000000,,2013-01-02 20:33:00,
2013-01-02 13:42:00,27.0,7.0,-100.00,WNW,288,4.0,7.0,42,0.04,,,0.10,156.000000,,2013-01-02 20:42:00,
2013-01-02 13:53:00,27.0,7.0,-100.00,WNW,288,4.0,7.0,42,0.04,,,0.10,156.000000,,2013-01-02 20:53:00,
2013-01-02 14:22:00,27.0,7.0,-100.00,West,273,4.0,8.0,42,0.05,,,0.12,416.000000,,2013-01-02 21:22:00,
2013-01-02 14:32:00,27.0,7.0,-100.00,West,273,4.0,8.0,42,0.05,,,0.12,416.000000,,2013-01-02 21:32:00,
2013-01-02 14:42:00,27.0,7.0,-100.00,West,273,4.0,8.0,42,0.05,,,0.12,416.000000,,2013-01-02 21:42:00,
2013-01-02 14:52:00,27.0,7.0,-100.00,West,273,4.0,8.0,42,0.05,,,0.12,416.000000,,2013-01-02 21:52:00,
2013-01-02 15:22:00,21.0,6.0,-100.00,West,259,2.0,6.0,52,0.00,,,-99.99,199.000000,,2013-01-02 22:22:00,
2013-01-02 15:32:00,21.0,6.0,-100.00,West,259,2.0,6.0,52,0.00,,,-99.99,199.000000,,2013-01-02 22:32:00,
2013-01-02 15:42:00,21.0,6.0,-100.00,West,259,2.0,6.0,52,0.00,,,-99.99,199.000000,,2013-01-02 22:42:00,
2013-01-02 15:52:00,21.0,6.0,-100.00,West,259,2.0,6.0,52,0.00,,,-99.99,199.000000,,2013-01-02 22:52:00,
2013-01-02 16:22:00,22.0,0.0,-100.00,NNE,30,5.0,8.0,37,0.00,,,0.12,134.000000,,2013-01-02 23:22:00,
2013-01-02 16:33:00,22.0,0.0,-100.00,NNE,30,5.0,8.0,37,0.00,,,0.12,134.000000,,2013-01-02 23:33:00,
2013-01-02 16:42:00,22.0,0.0,-100.00,NNE,30,5.0,8.0,37,0.00,,,0.12,134.000000,,2013-01-02 23:42:00,
2013-01-02 16:52:00,22.0,0.0,-100.00,NNE,30,5.0,8.0,37,0.00,,,0.12,134.000000,,2013-01-02 23:52:00,
2013-01-02 17:22:00,18.0,1.0,-100.00,ENE,61,4.0,10.0,46,0.00,,,0.12,12.000000,,2013-01-03 00:22:00,
2013-01-02 17:37:00,18.0,1.0,-100.00,ENE,61,4.0,10.0,46,0.00,,,0.12,12.000000,,2013-01-03 00:37:00,
2013-01-02 17:52:00,18.0,1.0,-100.00,ENE,61,4.0,10.0,46,0.00,,,0.12,12.000000,,2013-01-03 00:52:00,
2013-01-02 18:22:00,12.0,0.0,-100.00,NE,39,3.0,7.0,59,0.00,,,0.12,2.000000,,2013-01-03 01:22:00,
2013-01-02 18:32:00,12.0,0.0,-100.00,NE,39,3.0,7.0,59,0.00,,,0.12,2.000000,,2013-01-03 01:32:00,
2013-01-02 18:42:00,12.0,0.0,-100.00,NE,39,3.0,7.0,59,0.00,,,0.12,2.000000,,2013-01-03 01:42:00,
2013-01-02 18:52:00,12.0,0.0,-100.00,NE,39,3.0,7.0,59,0.00,,,0.12,2.000000,,2013-01-03 01:52:00,
2013-01-02 19:22:00,10.0,-1.0,-100.00,East,101,3.0,8.0,60,0.00,,,0.12,1.000000,,2013-01-03 02:22:00,
2013-01-02 19:33:00,10.0,-1.0,-100.00,East,101,3.0,8.0,60,0.00,,,0.12,1.000000,,2013-01-03 02:33:00,
2013-01-02 19:42:00,10.0,-1.0,-100.00,East,101,3.0,8.0,60,0.00,,,0.12,1.000000,,2013-01-03 02:42:00,
2013-01-02 19:52:00,10.0,-1.0,-100.00,East,101,3.0,8.0,60,0.00,,,0.12,1.000000,,2013-01-03 02:52:00,
2013-01-02 20:22:00,10.0,-1.0,-100.00,ENE,62,3.0,6.0,60,0.00,,,0.12,1.000000,,2013-01-03 03:22:00,
2013-01-02 20:43:00,10.0,-1.0,-100.00,ENE,62,3.0,6.0,60,0.00,,,0.12,1.000000,,2013-01-03 03:43:00,
2013-01-02 20:52:00,10.0,-1.0,-100.00,ENE,62,3.0,6.0,60,0.00,,,0.12,1.000000,,2013-01-03 03:52:00,
2013-01-02 21:22:00,7.0,-2.0,-100.00,East,84,2.0,5.0,66,0.00,,,0.12,1.000000,,2013-01-03 04:22:00,
2013-01-02 21:32:00,7.0,-2.0,-100.00,East,84,2.0,5.0,66,0.00,,,0.12,1.000000,,2013-01-03 04:32:00,
2013-01-02 21:42:00,7.0,-2.0,-100.00,East,84,2.0,5.0,66,0.00,,,0.12,1.000000,,2013-01-03 04:42:00,
2013-01-02 21:52:00,7.0,-2.0,-100.00,East,84,2.0,5.0,66,0.00,,,0.12,1.000000,,2013-01-03 04:52:00,
2013-01-02 22:22:00,3.0,-3.0,-100.00,East,81,1.0,4.0,75,0.00,,,0.12,1.000000,,2013-01-03 05:22:00,
2013-01-02 22:33:00,3.0,-3.0,-100.00,East,81,1.0,4.0,75,0.00,,,0.12,1.000000,,2013-01-03 05:33:00,
2013-01-02 22:42:00,3.0,-3.0,-100.00,East,81,1.0,4.0,75,0.00,,,0.12,1.000000,,2013-01-03 05:42:00,
2013-01-02 22:52:00,3.0,-3.0,-100.00,East,81,1.0,4.0,75,0.00,,,0.12,1.000000,,2013-01-03 05:52:00,
2013-01-02 23:22:00,5.0,-2.0,-100.00,SSE,167,1.0,7.0,71,0.00,,,0.12,1.000000,,2013-01-03 06:22:00,
2013-01-02 23:32:00,5.0,-2.0,-100.00,SSE,167,1.0,7.0,71,0.00,,,0.12,1.000000,,2013-01-03 06:32:00,
2013-01-02 23:42:00,5.0,-2.0,-100.00,SSE,167,1.0,7.0,71,0.00,,,0.12,1.000000,,2013-01-03 06:42:00,
2013-01-02 23:52:00,5.0,-2.0,-100.00,SSE,167,1.0,7.0,71,0.00,,,0.12,1.000000,,2013-01-03 06:52:00,